Valparaiso, IN

6:25 PM CST on November 11, 2019 (GMT -0600)
Porter County Municipal

Weather History for KVPZ - October, 2019

Change the Weather History Date:

Sunday, October 20, 2019

  Actual Average Record
Temperature  
Mean Temperature 57 °F 51 °F  
Max Temperature 65 °F 61 °F 84 °F (2003)
Min Temperature 48 °F 41 °F 32 °F (2002)
Degree Days  
Heating Degree Days 8 14  
Month to date heating degree days 188 228  
Since 1 July heating degree days 197 358  
Cooling Degree Days 0 0  
Month to date cooling degree days 22 11  
Year to date cooling degree days 1042 713  
Growing Degree Days 6 (Base 50)    
Moisture  
Dew Point 48 °F    
Average Humidity 76    
Maximum Humidity 90    
Minimum Humidity 63    
Precipitation  
Precipitation 0.00 in 0.11 in 1.00 in (2011)
Month to date precipitation 1.06 2.11  
Year to date precipitation 32.11 30.86  
Sea Level Pressure  
Sea Level Pressure 29.89 in    
Wind  
Wind Speed 5 mph (NNE)    
Max Wind Speed 9 mph    
Max Gust Speed 17 mph    
Visibility 10 miles    
Events      
T = Trace of Precipitation, MM = Missing Value Source: NWS Daily Summary

Daily Weather History Graph

Daily Weather History Graph

Search for Another Location

Airport or City:

Astronomy

Oct. 20, 2019 Rise Set
Actual Time 7:05 AM CDT 5:59 PM CDT
Civil Twilight 6:37 AM CDT 6:27 PM CDT
Nautical Twilight 6:05 AM CDT 6:59 PM CDT
Astronomical Twilight 5:32 AM CDT 7:31 PM CDT
Moon 11:05 PM CDT (10/20) 1:35 PM CDT (10/20)
Length of Visible Light 11h 50m
Length of Day
10h 54m
Waning Gibbous, 59% of the Moon is Illuminated
Oct 20
Waning Gibbous
Oct 21
Last Quarter
Oct 27
New
Nov 4
First Quarter
Nov 12
Full

Hourly Weather History & Observations

Time (CDT) Temp. Dew Point Humidity Pressure Visibility Wind Dir Wind Speed Gust Speed Precip Events Conditions
12:56 AM 57.0 °F 46.0 °F 67% 29.77 in 10.0 mi SSW 4.6 mph - N/A   Overcast
1:56 AM 57.0 °F 46.0 °F 67% 29.78 in 10.0 mi SW 4.6 mph - N/A   Overcast
2:56 AM 55.9 °F 46.0 °F 69% 29.78 in 10.0 mi West 4.6 mph - N/A   Overcast
3:56 AM 55.9 °F 46.9 °F 72% 29.79 in 10.0 mi SSW 3.5 mph - N/A   Overcast
4:56 AM 55.0 °F 46.9 °F 74% 29.81 in 10.0 mi WNW 3.5 mph - N/A   Overcast
5:56 AM 57.0 °F 48.0 °F 72% 29.83 in 10.0 mi WNW 3.5 mph - N/A   Overcast
6:56 AM 55.9 °F 48.0 °F 75% 29.85 in 10.0 mi North 4.6 mph - N/A   Overcast
7:56 AM 55.0 °F 48.0 °F 77% 29.87 in 10.0 mi Variable 4.6 mph - N/A   Mostly Cloudy
8:56 AM 57.0 °F 48.9 °F 74% 29.90 in 10.0 mi NNE 4.6 mph - N/A   Partly Cloudy
9:13 AM 57.9 °F 48.9 °F 72% 29.90 in 10.0 mi North 5.8 mph - N/A   Mostly Cloudy
9:56 AM 57.9 °F 48.9 °F 72% 29.92 in 10.0 mi North 6.9 mph - N/A   Overcast
10:56 AM 59.0 °F 48.9 °F 69% 29.94 in 10.0 mi Variable 6.9 mph - N/A   Overcast
11:56 AM 60.1 °F 50.0 °F 69% 29.94 in 10.0 mi WSW 4.6 mph - N/A   Mostly Cloudy
12:09 PM 61.0 °F 50.0 °F 67% 29.93 in 10.0 mi North 5.8 mph - N/A   Partly Cloudy
12:48 PM 62.1 °F 50.0 °F 65% 29.93 in 10.0 mi Calm Calm - N/A   Mostly Cloudy
12:56 PM 64.0 °F 51.1 °F 63% 29.92 in 10.0 mi NNW 5.8 mph - N/A   Mostly Cloudy
1:56 PM 60.1 °F 50.0 °F 69% 29.92 in 10.0 mi North 6.9 mph - N/A   Overcast
2:52 PM 62.6 °F 50.0 °F 63% 29.91 in 10.0 mi North 4.6 mph - N/A   Partly Cloudy
2:56 PM 63.0 °F 50.0 °F 63% 29.91 in 10.0 mi NNW 4.6 mph - N/A   Partly Cloudy
3:56 PM 64.0 °F 51.1 °F 63% 29.91 in 10.0 mi ENE 5.8 mph - N/A   Partly Cloudy
4:56 PM 63.0 °F 50.0 °F 63% 29.91 in 10.0 mi NNE 6.9 mph - N/A   Clear
5:56 PM 57.0 °F 50.0 °F 77% 29.92 in 10.0 mi North 5.8 mph - N/A   Clear
6:56 PM 53.1 °F 48.0 °F 83% 29.93 in 10.0 mi NNE 3.5 mph - N/A   Clear
7:22 PM 52.0 °F 48.0 °F 86% 29.93 in 10.0 mi NNE 4.6 mph - N/A   Scattered Clouds
7:31 PM 52.0 °F 48.0 °F 86% 29.93 in 10.0 mi NE 3.5 mph - N/A   Mostly Cloudy
7:41 PM 51.1 °F 48.0 °F 89% 29.93 in 10.0 mi NE 5.8 mph - N/A   Scattered Clouds
7:56 PM 51.1 °F 48.0 °F 89% 29.94 in 10.0 mi NNE 4.6 mph - N/A   Partly Cloudy
8:16 PM 51.1 °F 48.0 °F 89% 29.93 in 10.0 mi NE 5.8 mph - N/A   Mostly Cloudy
8:56 PM 52.0 °F 48.9 °F 89% 29.94 in 10.0 mi NE 4.6 mph - N/A   Overcast
9:56 PM 51.1 °F 48.0 °F 89% 29.93 in 10.0 mi ENE 5.8 mph - N/A   Overcast
10:46 PM 50.0 °F 46.9 °F 89% 29.92 in 10.0 mi East 4.6 mph - N/A   Overcast
10:56 PM 48.9 °F 46.0 °F 90% 29.92 in 9.0 mi ENE 5.8 mph - N/A   Overcast
11:21 PM 48.0 °F 45.0 °F 89% 29.90 in 10.0 mi ENE 6.9 mph - N/A   Overcast
11:47 PM 48.9 °F 46.0 °F 90% 29.89 in 10.0 mi ENE 5.8 mph - N/A   Mostly Cloudy
11:56 PM 48.9 °F 46.0 °F 90% 29.89 in 10.0 mi East 5.8 mph - N/A   Scattered Clouds